Location: ?
(35.4554°N, 139.3092°E)
Time: 22:33:07
(UTC+00:00)

Cosmos 489 Rocket - Pass Details

Date: 21 April 2021
Orbit: 953 x 982 km, 74.0° (Epoch: 10 May)

Event Time Altitude Azimuth Distance (km) Brightness Sun altitude
Rises 18:03:02 0° 337° (NNW) 3,634 7.6 -22.7°
Reaches altitude 10° 18:05:36 10° 333° (NNW) 2,686 6.9 -22.3°
Maximum altitude 18:11:37 55° 257° (WSW) 1,136 4.5 -21.2°
Enters shadow 18:15:37 22° 188° (S) 1,975 5.7 -20.6°
